Regional Weather Roundup
Issued by NWS Green Bay, WI

Home | Current Version | Previous Version | Text Only | Print | Product List | Glossary On
Versions: 1 2 3 4 5 6 7 8 9 10 11 12 13 14 15 16 17 18 19 20 21 22 23 24 25 26 27 28 29 30 31 32 33 34 35 36 37 38 39 40 41 42 43 44 45 46 47 48 49 50
000
ASUS43 KGRB 180110
RWRGRB

NORTH-CENTRAL AND NORTHEAST WISCONSIN REGIONAL WEATHER ROUNDUP
NATIONAL WEATHER SERVICE GREEN BAY WI
800 PM CDT THU APR 17 2014

WIZ005-009-010>012-018-019-180200-
NORTH CENTRAL WISCONSIN

CITY           SKY/WX    TMP DP  RH WIND       PRES   REMARKS
IRONWOOD       CLOUDY    34  27  75 W5        30.22S
MANITOWISH WTR CLOUDY    31  29  91 CALM      30.23S
ARBOR VITAE    CLOUDY    33  29  85 CALM      30.24R
EAGLE RIVER    CLOUDY    32  27  83 NW9       30.23R
LAND O LAKES   CLOUDY    32  29  88 CALM      30.23R
RHINELANDER    CLOUDY    32  27  81 W10       30.24R
PHILLIPS       CLOUDY    32  27  82 CALM      30.26R
ANTIGO         CLOUDY    34  29  83 NW6       30.24R
TOMAHAWK       CLOUDY    32  28  86 CALM      30.25R
MERRILL        CLOUDY    35  30  82 CALM      30.25S
$$

WIZ013-073-180200-
NORTHEAST WISCONSIN

CITY           SKY/WX    TMP DP  RH WIND       PRES   REMARKS
IRON MOUNTAIN  CLOUDY    37  32  82 W5        30.21R
MARINETTE      CLOUDY    37  32  81 CALM      30.23R
OCONTO         CLOUDY    43  33  70 NW5       30.24R
$$

WIZ017-030-035>037-045-180200-
CENTRAL WISCONSIN

CITY           SKY/WX    TMP DP  RH WIND       PRES   REMARKS
MEDFORD        CLOUDY    32  28  83 NW8       30.26R
WAUSAU         CLOUDY    36  29  75 NW6       30.24R
MOSINEE        CLOUDY    36  30  80 NW8       30.26R
MARSHFIELD     CLOUDY    37  30  75 NW9       30.25S
WISC RAPIDS    CLOUDY    38  29  70 NW6       30.28R
STEVENS POINT  CLOUDY    36  29  76 W3        30.27R
WAUPACA        CLOUDY    43  34  70 W6        30.26R
SHAWANO        CLOUDY    43  34  69 W6        30.25R
CLINTONVILLE   CLOUDY    41  34  75 NW10      30.25R
$$

WIZ038-039-048-051-180200-
FOX VALLEY

CITY           SKY/WX    TMP DP  RH WIND       PRES   REMARKS
NWS GREEN BAY  CLOUDY    45  36  70 NW16      30.24R
APPLETON       MOCLDY    43  34  70 NW12      30.24R
OSHKOSH        PTCLDY    44  34  67 NW10      30.24R
FOND DU LAC    MOCLDY    45  35  68 NW13      30.23R
$$

WIZ022-050-052-180200-
EAST CENTRAL WISCONSIN

CITY           SKY/WX    TMP DP  RH WIND       PRES   REMARKS
STURGEON BAY   MOCLDY    39  30  70 CALM      30.24R
MANITOWOC      CLOUDY    48  38  68 N6        30.23R
SHEBOYGAN      CLOUDY    50  38  63 NW5       30.21R
$$

LMZ563-521-522-541>543-180200-
LAKESHORE

STATION/POSITION TIME  TEMP    WIND        PRES    VSBY  WAVE
                       AIR SEA DIR/SP/G                  HT/PER
                 (UTC) (F)     (DEG/KT/KT) (MB)    (MI)  (FT/S)
SHEBOYGAN LKSHOR 0100   49     290/  3/  4 1023.6R
KEWAUNEE LKSHORE 0100   41      10/  5/  6 1024.0R
NORTHPORT PIER   0100   38     300/  2/  2 1023.7S
SISTER BAY LKSHO 0100   39        CALM       N/A
STURGEON BAY CG  0000   46      10/  4     1022.6          2
MENOMINEE LKSHOR 0100   36      CALM  /  2 1024.3R
$$



USA.gov is the U.S. government's official web portal to all federal, state and local government web resources and services.